{"data":{"norad_id":53706,"epoch":"2026-09-20T22:00:03.000096Z","epoch_age_seconds":45270,"freshness":"FRESH","line1":"1 53706U 22107G   26263.91670139  .00090843  00000+0  25954-2 0  9998","line2":"2 53706  53.1605  83.7184 0001537  85.1321 296.2321 15.35260780  5827","mean_motion":15.3526078,"eccentricity":0.0001537,"inclination_deg":53.1605,"raan_deg":83.7184,"arg_perigee_deg":85.1321,"mean_anomaly_deg":296.2321,"bstar":0.0025954,"rev_number":582,"period_min":93.79514013248,"perigee_km":459.09497198585,"apogee_km":461.19706018499,"semimajor_km":6838.2830160854,"source":"CELESTRAK","updated_at":"2026-09-21T09:00:32.982687Z"}}